Weather History for KHAI - January, 2014

Change the Weather History Date:

Monday, January 20, 2014

  Actual Average Record
Temperature  
Mean Temperature 26 °F -  
Max Temperature 37 °F 30 °F 51 °F (1954)
Min Temperature 14 °F 13 °F -16 °F (1985)
Degree Days  
Heating Degree Days 40    
Moisture  
Dew Point 21 °F    
Average Humidity 72    
Maximum Humidity 82    
Minimum Humidity 61    
Precipitation  
Precipitation 0.00 in - - ()
Sea Level Pressure  
Sea Level Pressure 29.80 in    
Wind  
Wind Speed 10 mph (NNW)    
Max Wind Speed 18 mph    
Max Gust Speed 26 mph    
Visibility 10 miles    
Events Snow    
Averages and records for this station are not official NWS values.
T = Trace of Precipitation, MM = Missing Value Source: NWS Daily Summary

Daily Weather History Graph

Daily Weather History Graph

Search for Another Location

Airport or City:

Trip Planner

Search our weather history database for the weather conditions in past years. The results will help you decide how hot, cold, wet, or windy it might be!

Date:

Astronomy

Jan. 20, 2014 Rise Set
Actual Time 8:05 AM EST 5:42 PM EST
Civil Twilight 7:34 AM EST 6:12 PM EST
Nautical Twilight 7:00 AM EST 6:46 PM EST
Astronomical Twilight 6:27 AM EST 7:20 PM EST
Moon 10:21 PM EST (1/20) 9:59 AM EST (1/20)
Length of Visible Light 10h 38m
Length of Day
9h 37m
Waning Gibbous, 83% of the Moon is Illuminated
Jan 20
Waning Gibbous
Jan 24
Last Quarter
Jan 30
New
Feb 6
First Quarter
Feb 14
Full

Hourly Weather History & Observations

Time (EST) Temp. Windchill Dew Point Humidity Pressure Visibility Wind Dir Wind Speed Gust Speed Precip Events Conditions
12:15 AM 37.6 °F 29.1 °F 27.5 °F 67% 29.50 in 10.0 mi WSW 13.8 mph 19.6 mph N/A   Overcast
12:35 AM 37.6 °F 30.5 °F 27.5 °F 67% 29.50 in 10.0 mi WSW 10.4 mph 16.1 mph N/A   Overcast
12:55 AM 37.6 °F 31.0 °F 27.7 °F 67% 29.50 in 10.0 mi WSW 9.2 mph - N/A   Overcast
1:15 AM 37.6 °F 31.6 °F 27.7 °F 67% 29.50 in 10.0 mi WSW 8.1 mph - N/A   Overcast
1:35 AM 37.4 °F 32.1 °F 28.0 °F 69% 29.50 in 10.0 mi WSW 6.9 mph - N/A   Overcast
1:54 AM 37.0 °F 31.0 °F 28.0 °F 70% 29.51 in 10.0 mi West 8.1 mph - N/A   Overcast
2:15 AM 36.9 °F 27.8 °F 28.9 °F 73% 29.52 in 10.0 mi WNW 15.0 mph - N/A   Overcast
2:35 AM 37.4 °F 29.3 °F 29.3 °F 73% 29.53 in 10.0 mi NW 12.7 mph 17.3 mph N/A   Overcast
2:54 AM 36.7 °F 29.4 °F 29.1 °F 74% 29.54 in 10.0 mi NW 10.4 mph - N/A   Overcast
3:15 AM 36.5 °F 27.8 °F 28.9 °F 74% 29.56 in 10.0 mi NW 13.8 mph 18.4 mph N/A   Overcast
3:35 AM 36.1 °F 28.2 °F 28.6 °F 74% 29.58 in 10.0 mi NW 11.5 mph 17.3 mph N/A   Overcast
3:54 AM 35.8 °F 27.8 °F 28.4 °F 75% 29.59 in 10.0 mi NNW 11.5 mph - N/A   Overcast
4:15 AM 35.6 °F 29.2 °F 28.2 °F 75% 29.60 in 10.0 mi NW 8.1 mph - N/A   Overcast
4:35 AM 35.1 °F 27.4 °F 28.2 °F 76% 29.62 in 10.0 mi WNW 10.4 mph - N/A   Overcast
4:54 AM 34.7 °F 26.9 °F 28.4 °F 78% 29.63 in 10.0 mi NW 10.4 mph - N/A   Overcast
5:15 AM 34.5 °F 26.7 °F 28.4 °F 78% 29.65 in 10.0 mi WNW 10.4 mph - N/A   Overcast
5:35 AM 34.3 °F 25.9 °F 27.7 °F 77% 29.66 in 10.0 mi NW 11.5 mph - N/A   Overcast
5:55 AM 33.8 °F 22.8 °F 27.5 °F 78% 29.66 in 10.0 mi NW 18.4 mph - N/A   Overcast
6:15 AM 32.7 °F 23.0 °F 25.3 °F 74% 29.69 in 10.0 mi NW 13.8 mph 25.3 mph N/A   Overcast
6:34 AM 32.0 °F 21.2 °F 23.9 °F 72% 29.70 in 10.0 mi NNW 16.1 mph 26.5 mph N/A   Overcast
6:55 AM 31.6 °F 20.4 °F 22.8 °F 70% 29.71 in 10.0 mi NW 17.3 mph 23.0 mph N/A   Overcast
7:15 AM 31.1 °F 21.9 °F 21.9 °F 69% 29.72 in 10.0 mi NW 11.5 mph - N/A   Overcast
7:34 AM 31.1 °F 23.1 °F 21.6 °F 68% 29.74 in 10.0 mi NNW 9.2 mph 17.3 mph N/A   Overcast
7:55 AM 30.2 °F 22.6 °F 20.3 °F 67% 29.75 in 10.0 mi North 8.1 mph - N/A   Overcast
8:15 AM 29.8 °F 21.5 °F 19.4 °F 65% 29.75 in 10.0 mi North 9.2 mph - N/A   Overcast
8:34 AM 29.3 °F 20.8 °F 19.2 °F 66% 29.77 in 10.0 mi NNW 9.2 mph - N/A   Overcast
8:55 AM 29.3 °F 20.8 °F 19.2 °F 66% 29.80 in 10.0 mi NNW 9.2 mph - N/A   Overcast
9:15 AM 29.1 °F 21.3 °F 19.0 °F 66% 29.81 in 10.0 mi NNW 8.1 mph - N/A   Overcast
9:34 AM 29.1 °F 22.1 °F 18.9 °F 66% 29.82 in 10.0 mi NNW 6.9 mph - N/A   Overcast
9:55 AM 29.3 °F 25.6 °F 19.4 °F 67% 29.82 in 10.0 mi NW 3.5 mph - N/A   Overcast
10:15 AM 29.3 °F 24.3 °F 19.4 °F 67% 29.83 in 10.0 mi North 4.6 mph - N/A   Overcast
10:35 AM 29.3 °F 24.3 °F 19.4 °F 67% 29.84 in 10.0 mi NNW 4.6 mph - N/A   Overcast
10:55 AM 30.0 °F - 19.2 °F 64% 29.84 in 10.0 mi Calm Calm - N/A   Overcast
11:14 AM 30.4 °F 26.9 °F 19.4 °F 64% 29.84 in 10.0 mi NNW 3.5 mph - N/A   Overcast
11:35 AM 31.6 °F 27.0 °F 19.6 °F 61% 29.84 in 10.0 mi NNW 4.6 mph - N/A   Mostly Cloudy
11:55 AM 32.0 °F 24.2 °F 20.3 °F 62% 29.85 in 10.0 mi West 9.2 mph - N/A   Mostly Cloudy
12:15 PM 31.5 °F 24.9 °F 20.5 °F 64% 29.84 in 10.0 mi NW 6.9 mph - N/A   Overcast
12:35 PM 31.5 °F 25.8 °F 20.3 °F 63% 29.84 in 10.0 mi NW 5.8 mph - N/A   Overcast
12:55 PM 31.6 °F 25.1 °F 20.7 °F 64% 29.84 in 10.0 mi West 6.9 mph - N/A   Overcast
1:15 PM 31.6 °F 27.0 °F 21.4 °F 66% 29.84 in 10.0 mi West 4.6 mph - N/A   Overcast
1:35 PM 31.6 °F 23.7 °F 21.6 °F 66% 29.84 in 10.0 mi West 9.2 mph - N/A   Overcast
1:54 PM 31.1 °F 24.5 °F 21.7 °F 68% 29.84 in 10.0 mi SW 6.9 mph - N/A Snow Light Snow
2:15 PM 31.1 °F 23.7 °F 22.1 °F 69% 29.85 in 10.0 mi West 8.1 mph - N/A   Overcast
2:34 PM 30.9 °F 22.8 °F 22.8 °F 72% 29.85 in 10.0 mi West 9.2 mph - N/A   Overcast
2:55 PM 30.7 °F 24.1 °F 23.0 °F 73% 29.85 in 10.0 mi WNW 6.9 mph - N/A   Overcast
3:15 PM 30.9 °F 24.3 °F 23.2 °F 73% 29.85 in 10.0 mi WNW 6.9 mph - N/A   Overcast
3:34 PM 30.7 °F 24.1 °F 23.7 °F 75% 29.86 in 10.0 mi WNW 6.9 mph - N/A   Overcast
3:55 PM 29.5 °F 23.4 °F 22.5 °F 75% 29.87 in 10.0 mi North 5.8 mph - N/A   Overcast
4:15 PM 28.9 °F 21.9 °F 22.1 °F 76% 29.87 in 10.0 mi North 6.9 mph - N/A   Overcast
4:34 PM 28.0 °F 19.3 °F 21.2 °F 76% 29.88 in 10.0 mi North 9.2 mph - N/A   Overcast
4:55 PM 27.5 °F 21.1 °F 21.4 °F 78% 29.89 in 10.0 mi North 5.8 mph - N/A   Overcast
5:15 PM 26.6 °F 18.2 °F 21.0 °F 79% 29.90 in 10.0 mi NNE 8.1 mph - N/A   Overcast
5:34 PM 25.7 °F 18.0 °F 20.1 °F 79% 29.91 in 10.0 mi NNE 6.9 mph - N/A   Overcast
5:55 PM 25.3 °F 16.0 °F 20.1 °F 81% 29.91 in 10.0 mi North 9.2 mph - N/A   Overcast
6:15 PM 24.8 °F 16.9 °F 19.9 °F 82% 29.92 in 10.0 mi North 6.9 mph - N/A   Overcast
6:35 PM 24.8 °F 16.9 °F 19.4 °F 80% 29.93 in 10.0 mi North 6.9 mph - N/A   Overcast
6:55 PM 23.9 °F 15.0 °F 18.5 °F 80% 29.94 in 10.0 mi North 8.1 mph - N/A   Overcast
7:15 PM 23.9 °F 13.5 °F 18.5 °F 80% 29.94 in 10.0 mi North 10.4 mph - N/A   Overcast
7:35 PM 23.4 °F 16.2 °F 18.5 °F 82% 29.95 in 10.0 mi NE 5.8 mph - N/A   Overcast
7:55 PM 23.5 °F 14.5 °F 16.5 °F 75% 29.96 in 10.0 mi North 8.1 mph - N/A   Overcast
8:15 PM 23.5 °F 16.4 °F 15.8 °F 72% 29.96 in 10.0 mi NNE 5.8 mph - N/A   Overcast
8:35 PM 23.0 °F 13.9 °F 15.4 °F 73% 29.97 in 10.0 mi North 8.1 mph - N/A   Overcast
8:54 PM 22.8 °F 13.6 °F 15.1 °F 72% 29.97 in 7.0 mi North 8.1 mph - N/A Snow Light Snow
9:15 PM 22.1 °F 12.0 °F 14.9 °F 74% 29.97 in 10.0 mi North 9.2 mph - N/A   Overcast
9:35 PM 21.9 °F 10.4 °F 14.5 °F 73% 29.97 in 7.0 mi North 11.5 mph - N/A Snow Light Snow
9:54 PM 21.2 °F 10.1 °F 15.4 °F 78% 29.97 in 7.0 mi NNE 10.4 mph - N/A Snow Light Snow
10:15 PM 18.5 °F 6.8 °F 13.5 °F 81% 29.99 in 5.0 mi NNE 10.4 mph 19.6 mph N/A Snow Light Snow
10:35 PM 16.7 °F 3.8 °F 10.2 °F 76% 30.00 in 10.0 mi NE 11.5 mph 20.7 mph N/A   Overcast
10:54 PM 15.8 °F 0.3 °F 9.3 °F 76% 30.01 in 10.0 mi NE 16.1 mph - N/A   Overcast
11:15 PM 15.3 °F 2.0 °F 8.2 °F 74% 30.02 in 10.0 mi NNE 11.5 mph 16.1 mph N/A   Overcast
11:34 PM 14.9 °F 1.6 °F 7.7 °F 73% 30.01 in 10.0 mi NE 11.5 mph - N/A   Overcast
11:55 PM 14.4 °F 0.9 °F 7.5 °F 74% 30.02 in 7.0 mi NE 11.5 mph - N/A Snow Light Snow